| time (UTC) | temp C | wind direction | speed KPH | gust KPH | rain 1hr cm | rain 24hr cm | rain mn cm | humidity % | barometer mb |
| 20260505011611 | 18 | 247 | 8.0 | 14.5 | 0.00 | 0.00 | 0.00 | 36 | 1000.8 |
| 20260505010057 | 19 | 236 | 4.8 | 12.9 | 0.00 | 0.00 | 0.00 | 35 | 1000.9 |
| 20260505004607 | 20 | 211 | 1.6 | 9.7 | 0.00 | 0.00 | 0.00 | 34 | 1001.0 |
| 20260505003057 | 19 | 216 | 3.2 | 9.7 | 0.00 | 0.00 | 0.00 | 36 | 1001.0 |
| 20260505001615 | 20 | 237 | 3.2 | 9.7 | 0.00 | 0.00 | 0.00 | 35 | 1001.0 |
| 20260505000108 | 19 | 19 | 0.0 | 8.0 | 0.00 | 0.00 | 0.00 | 33 | 1001.2 |
| 20260504234558 | 18 | 29 | 4.8 | 11.3 | 0.00 | 0.00 | 0.00 | 38 | 1001.3 |
| 20260504233109 | 17 | 34 | 9.7 | 20.9 | 0.00 | 0.00 | 0.00 | 39 | 1001.3 |
| 20260504231555 | 17 | 36 | 12.9 | 22.5 | 0.00 | 0.00 | 0.00 | 41 | 1001.3 |
| 20260504230053 | 17 | 355 | 16.1 | 35.4 | 0.00 | 0.00 | 0.00 | 41 | 1001.4 |
| 20260504224553 | 17 | 28 | 14.5 | 30.6 | 0.00 | 0.00 | 0.00 | 38 | 1001.5 |
| 20260504223051 | 17 | 26 | 12.9 | 33.8 | 0.00 | 0.00 | 0.00 | 39 | 1001.8 |
| 20260504221550 | 16 | 94 | 19.3 | 33.8 | 0.00 | 0.00 | 0.00 | 41 | 1002.1 |
| 20260504220052 | 16 | 151 | 4.8 | 11.3 | 0.00 | 0.00 | 0.00 | 40 | 1002.2 |
| 20260504214551 | 16 | 96 | 12.9 | 25.7 | 0.00 | 0.00 | 0.00 | 39 | 1002.3 |
| 20260504213053 | 16 | 80 | 12.9 | 25.7 | 0.00 | 0.00 | 0.00 | 40 | 1002.2 |
| 20260504211551 | 17 | 63 | 12.9 | 30.6 | 0.00 | 0.00 | 0.00 | 37 | 1001.9 |
| 20260504210049 | 17 | 26 | 6.4 | 16.1 | 0.00 | 0.00 | 0.00 | 36 | 1001.8 |
| 20260504204551 | 18 | 78 | 6.4 | 16.1 | 0.00 | 0.00 | 0.00 | 35 | 1001.8 |
| 20260504203052 | 18 | 46 | 4.8 | 16.1 | 0.00 | 0.00 | 0.00 | 35 | 1001.8 |
| 20260504201547 | 18 | 26 | 3.2 | 14.5 | 0.00 | 0.00 | 0.00 | 32 | 1001.9 |
| 20260504200049 | 18 | 313 | 4.8 | 9.7 | 0.00 | 0.00 | 0.00 | 30 | 1002.0 |
| 20260504194555 | 21 | 186 | 1.6 | 6.4 | 0.00 | 0.00 | 0.00 | 29 | 1002.0 |
| 20260504193048 | 20 | 227 | 1.6 | 19.3 | 0.00 | 0.00 | 0.00 | 30 | 1002.2 |
| 20260504191605 | 21 | 254 | 8.0 | 19.3 | 0.00 | 0.00 | 0.00 | 28 | 1002.2 |
| 20260504190046 | 21 | 209 | 6.4 | 19.3 | 0.00 | 0.00 | 0.00 | 31 | 1002.3 |
| 20260504184541 | 21 | 239 | 8.0 | 19.3 | 0.00 | 0.00 | 0.00 | 31 | 1002.5 |
| 20260504183040 | 21 | 239 | 6.4 | 22.5 | 0.00 | 0.00 | 0.00 | 33 | 1002.6 |
| 20260504181536 | 20 | 246 | 6.4 | 20.9 | 0.00 | 0.00 | 0.00 | 35 | 1002.9 |
| 20260504180036 | 20 | 252 | 9.7 | 19.3 | 0.00 | 0.00 | 0.00 | 33 | 1002.9 |
| 20260504174535 | 20 | 241 | 12.9 | 20.9 | 0.00 | 0.00 | 0.00 | 34 | 1002.9 |
| 20260504173033 | 19 | 212 | 8.0 | 17.7 | 0.00 | 0.00 | 0.00 | 34 | 1003.0 |
| 20260504171544 | 19 | 255 | 1.6 | 8.0 | 0.00 | 0.00 | 0.00 | 33 | 1003.3 |
| 20260504090106 | 13 | 126 | 6.4 | 16.1 | 0.00 | 0.00 | 0.00 | 35 | 1003.8 |
| 20260504081552 | 15 | 94 | 14.5 | 33.8 | 0.00 | 0.00 | 0.00 | 28 | 1003.6 |
| 20260504044531 | 13 | 101 | 8.0 | 14.5 | 0.00 | 0.00 | 0.00 | 32 | 1005.0 |
| 20260504043042 | 13 | 74 | 8.0 | 11.3 | 0.00 | 0.00 | 0.00 | 32 | 1005.0 |
| 20260504041535 | 14 | 86 | 6.4 | 11.3 | 0.00 | 0.00 | 0.00 | 32 | 1005.1 |
| 20260504040031 | 15 | 81 | 6.4 | 11.3 | 0.00 | 0.00 | 0.00 | 31 | 1005.0 |
| 20260504034530 | 15 | 94 | 1.6 | 9.7 | 0.00 | 0.00 | 0.00 | 30 | 1005.0 |
| 20260504033031 | 15 | 98 | 4.8 | 12.9 | 0.00 | 0.00 | 0.00 | 30 | 1004.9 |
| 20260504031529 | 15 | 85 | 4.8 | 8.0 | 0.00 | 0.00 | 0.00 | 30 | 1004.8 |
| 20260504030027 | 15 | 85 | 3.2 | 12.9 | 0.00 | 0.00 | 0.00 | 29 | 1004.8 |
| 20260504024528 | 16 | 96 | 3.2 | 11.3 | 0.00 | 0.00 | 0.00 | 28 | 1004.8 |
| 20260504023028 | 16 | 90 | 6.4 | 11.3 | 0.00 | 0.00 | 0.00 | 28 | 1004.7 |
| 20260504021526 | 16 | 88 | 8.0 | 14.5 | 0.00 | 0.00 | 0.00 | 28 | 1004.7 |
| 20260504020026 | 17 | 84 | 8.0 | 12.9 | 0.00 | 0.00 | 0.00 | 28 | 1004.8 |
| 20260504014533 | 17 | 93 | 9.7 | 12.9 | 0.00 | 0.00 | 0.00 | 29 | 1004.9 |
| 20260504013023 | 18 | 86 | 6.4 | 11.3 | 0.00 | 0.00 | 0.00 | 28 | 1004.9 |